CW7979 Weather Reports


time (UTC)temp
F
wind
direction
speed
knots
gust
knots
rain 1hr
in
rain 24hr
in
rain mn
in
humidity
%
barometer
mb
20260510175708 86 270 2.6 2.6 0.00 0.00 0.00 35 1014.0
20260510175204 85 245 1.7 5.2 0.00 0.00 0.00 38 1014.0
20260510174701 86 15 0.0 3.5 0.00 0.00 0.00 34 1013.9
20260510174159 85 299 4.3 5.2 0.00 0.00 0.00 33 1014.0
20260510173655 84 169 2.6 5.2 0.00 0.00 0.00 34 1013.8
20260510173151 84 283 0.9 4.3 0.00 0.00 0.00 33 1013.9
20260510172646 85 188 1.7 2.6 0.00 0.00 0.00 33 1013.9
20260510172143 85 270 1.7 5.2 0.00 0.00 0.00 34 1014.0
20260510171640 85 235 3.5 9.6 0.00 0.00 0.00 37 1014.3
20260510171137 85 220 4.3 8.7 0.00 0.00 0.00 37 1014.2
20260510170633 85 270 1.7 4.3 0.00 0.00 0.00 35 1014.5
20260510170130 85 255 0.0 2.6 0.00 0.00 0.00 36 1014.4
20260510165626 84 320 0.0 5.2 0.00 0.00 0.00 34 1014.5
20260510165121 85 286 0.9 2.6 0.00 0.00 0.00 35 1014.5
20260510164620 84 270 2.6 4.3 0.00 0.00 0.00 39 1014.6
20260510164116 84 174 0.9 4.3 0.00 0.00 0.00 38 1014.6
20260510163611 83 131 0.0 4.3 0.00 0.00 0.00 39 1014.3
20260510163108 83 90 0.0 2.6 0.00 0.00 0.00 39 1014.4
20260510162603 82 90 2.6 2.6 0.00 0.00 0.00 40 1014.5
20260510162059 82 11 1.7 3.5 0.00 0.00 0.00 39 1014.5
20260510161555 81 23 2.6 3.5 0.00 0.00 0.00 37 1014.7
20260510161052 82 294 0.0 3.5 0.00 0.00 0.00 37 1014.6
20260510160549 84 274 2.6 5.2 0.00 0.00 0.00 41 1014.7
20260510160048 85 214 1.7 2.6 0.00 0.00 0.00 40 1014.8
20260510155545 84 248 1.7 3.5 0.00 0.00 0.00 42 1014.7
20260510155042 83 196 0.0 1.7 0.00 0.00 0.00 40 1014.9
20260510154537 81 81 0.9 3.5 0.00 0.00 0.00 42 1014.7
20260510154033 80 192 1.7 7.0 0.00 0.00 0.00 43 1014.9
20260510153528 81 212 4.3 4.3 0.00 0.00 0.00 44 1014.8
20260510153025 80 241 2.6 3.5 0.00 0.00 0.00 43 1014.8
20260510152522 81 254 2.6 6.1 0.00 0.00 0.00 42 1014.9
20260510152018 82 253 0.0 3.5 0.00 0.00 0.00 42 1015.1
20260510151515 81 195 0.0 3.5 0.00 0.00 0.00 43 1015.1
20260510151013 80 206 1.7 4.3 0.00 0.00 0.00 44 1015.0
20260510150507 82 324 0.0 1.7 0.00 0.00 0.00 43 1015.1
20260510150004 80 234 2.6 2.6 0.00 0.00 0.00 43 1015.0
20260510145501 82 150 0.0 0.0 0.00 0.00 0.00 45 1015.0
20260510144956 79 266 2.6 3.5 0.00 0.00 0.00 45 1015.0
20260510144453 80 231 1.7 3.5 0.00 0.00 0.00 47 1015.0
20260510143949 78 217 2.6 2.6 0.00 0.00 0.00 47 1014.9
20260510143439 77 29 0.9 0.9 0.00 0.00 0.00 47 1014.9
20260510142936 79 69 0.9 2.6 0.00 0.00 0.00 46 1014.9
20260510142433 78 96 1.7 1.7 0.00 0.00 0.00 49 1014.8
20260510141929 80 297 0.0 0.9 0.00 0.00 0.00 46 1014.7
20260510141426 79 258 1.7 2.6 0.00 0.00 0.00 48 1015.0
20260510140923 78 6 0.0 0.9 0.00 0.00 0.00 50 1015.0
20260510140414 77 198 0.9 2.6 0.00 0.00 0.00 52 1014.8
20260510135913 77 270 0.0 2.6 0.00 0.00 0.00 52 1014.9
20260510135410 77 270 0.9 1.7 0.00 0.00 0.00 52 1014.7
20260510134907 77 257 0.9 2.6 0.00 0.00 0.00 55 1014.8
20260510134403 76 251 0.9 2.6 0.00 0.00 0.00 53 1014.7
20260510133859 76 212 0.0 1.7 0.00 0.00 0.00 55 1014.9
20260510133356 75 168 1.7 2.6 0.00 0.00 0.00 55 1014.9
20260510132851 73 220 2.6 4.3 0.00 0.00 0.00 58 1014.9
20260510132349 73 237 0.0 2.6 0.00 0.00 0.00 59 1014.9
20260510131846 74 14 0.0 2.6 0.00 0.00 0.00 59 1014.9
20260510131344 73 270 0.0 2.6 0.00 0.00 0.00 62 1014.8
20260510130840 73 187 0.9 1.7 0.00 0.00 0.00 60 1014.8
20260510130337 72 262 0.0 2.6 0.00 0.00 0.00 64 1014.7
20260510125834 71 270 0.0 1.7 0.00 0.00 0.00 65 1014.6
20260510125330 70 243 0.0 2.6 0.00 0.00 0.00 67 1014.7
20260510124827 70 259 2.6 3.5 0.00 0.00 0.00 69 1014.6
20260510124324 69 203 1.7 2.6 0.00 0.00 0.00 71 1014.7
20260510123819 69 203 0.0 2.6 0.00 0.00 0.00 72 1014.8
20260510123315 68 237 1.7 3.5 0.00 0.00 0.00 73 1014.7
20260510122812 69 240 0.0 1.7 0.00 0.00 0.00 75 1014.6
20260510122308 69 254 0.0 1.7 0.00 0.00 0.00 76 1014.4
20260510121804 67 195 0.0 1.7 0.00 0.00 0.00 79 1014.4
20260510121302 68 220 0.0 1.7 0.00 0.00 0.00 79 1014.2
20260510120759 67 270 0.9 1.7 0.00 0.00 0.00 80 1014.1
20260510120255 67 172 0.0 0.9 0.00 0.00 0.00 83 1014.1
20260510115751 66 180 0.0 0.9 0.00 0.00 0.00 90 1014.1
20260510115250 63 180 0.0 1.7 0.00 0.00 0.00 92 1014.1
20260510114750 62 192 0.0 0.9 0.00 0.00 0.00 94 1013.9
20260510114248 62 172 0.0 0.0 0.00 0.00 0.00 96 1013.8
20260510113742 61 180 0.0 0.9 0.00 0.00 0.00 97 1013.9
20260510113240 62 106 0.0 0.9 0.00 0.00 0.00 99 1013.8
20260510112736 62 172 0.0 0.0 0.00 0.00 0.00 99 1013.7
20260510112233 61 195 0.0 0.0 0.00 0.00 0.00 99 1013.7
20260510111728 60 203 0.0 0.0 0.00 0.00 0.00 99 1013.5
20260510111226 59 203 0.0 0.0 0.00 0.00 0.00 99 1013.4
20260510110725 59 203 0.0 0.0 0.00 0.00 0.00 99 1013.5
20260510110224 54 203 0.0 0.0 0.00 0.00 0.00 99 1013.3
20260510105723 54 165 0.0 0.0 0.00 0.00 0.00 99 1013.3
20260510105218 54 165 0.0 0.0 0.00 0.00 0.00 99 1013.4
20260510104715 54 172 0.0 0.0 0.00 0.00 0.00 99 1013.3
20260510104212 54 195 0.0 0.9 0.00 0.00 0.00 99 1013.1
20260510103709 54 195 0.0 0.9 0.00 0.00 0.00 99 1013.0
20260510103206 54 180 0.0 0.0 0.00 0.00 0.00 99 1013.1
20260510102705 54 180 0.0 0.9 0.00 0.00 0.00 99 1013.0
20260510102201 54 175 0.0 0.9 0.00 0.00 0.00 99 1012.9
20260510101659 54 98 0.0 0.0 0.00 0.00 0.00 99 1012.9
20260510101158 54 98 0.0 0.0 0.00 0.00 0.00 99 1012.7
20260510100653 55 105 0.9 1.7 0.00 0.00 0.00 99 1012.7
20260510100151 55 90 0.0 0.9 0.00 0.00 0.00 99 1012.5
20260510095646 55 99 0.0 0.0 0.00 0.00 0.00 99 1012.4
20260510095141 55 74 0.0 0.9 0.00 0.00 0.00 99 1012.2
20260510094640 55 84 0.0 0.0 0.00 0.00 0.00 99 1012.4
20260510094136 55 40 0.0 1.7 0.00 0.00 0.00 99 1012.4
20260510093632 55 74 0.0 0.0 0.00 0.00 0.00 99 1012.5
20260510093130 55 74 0.0 0.0 0.00 0.00 0.00 99 1012.5
20260510092626 55 90 0.0 0.9 0.00 0.00 0.00 99 1012.2
20260510092121 55 172 0.0 0.0 0.00 0.00 0.00 99 1012.3
20260510091617 55 172 0.0 0.0 0.00 0.00 0.00 99 1012.2
20260510091113 55 172 0.0 0.0 0.00 0.00 0.00 99 1012.2
20260510090611 55 172 0.0 0.0 0.00 0.00 0.00 99 1012.0
20260510090107 56 172 0.0 0.0 0.00 0.00 0.00 99 1012.0
20260510085602 56 172 0.0 0.0 0.00 0.00 0.00 99 1012.1
20260510085058 56 172 0.0 0.0 0.00 0.00 0.00 99 1012.2
20260510084554 56 172 0.0 0.0 0.00 0.00 0.00 99 1012.0
20260510084051 56 49 0.0 0.0 0.00 0.00 0.00 99 1011.9
20260510083548 57 49 0.0 0.0 0.00 0.00 0.00 99 1012.0
20260510083044 57 49 0.0 0.0 0.00 0.00 0.00 99 1012.0
20260510082541 57 49 0.0 0.0 0.00 0.00 0.00 98 1011.8
20260510082036 57 49 0.0 0.0 0.00 0.00 0.00 98 1011.9
20260510081531 57 49 0.0 0.0 0.00 0.00 0.00 98 1011.9
20260510081027 58 49 0.0 0.0 0.00 0.00 0.00 98 1011.8
20260510080526 58 99 0.0 0.0 0.00 0.00 0.00 98 1011.8
20260510080024 58 99 0.0 0.0 0.00 0.00 0.00 98 1011.9
20260510075521 58 105 0.0 0.0 0.00 0.00 0.00 97 1011.7
20260510075017 58 105 0.0 0.0 0.00 0.00 0.00 97 1011.8
20260510074516 58 105 0.0 0.0 0.00 0.00 0.00 97 1011.6
20260510074011 58 105 0.0 0.0 0.00 0.00 0.00 97 1011.7
20260510073507 59 105 0.0 1.7 0.00 0.00 0.00 97 1011.7
20260510073004 59 106 0.0 0.9 0.00 0.00 0.00 96 1011.6
20260510072500 59 90 0.0 0.0 0.00 0.00 0.00 96 1011.5
20260510071956 59 90 0.0 0.0 0.00 0.00 0.00 96 1011.7
20260510071452 60 90 0.0 0.0 0.00 0.00 0.00 95 1011.7
20260510070950 60 96 0.0 1.7 0.00 0.00 0.00 95 1011.5
20260510070447 60 180 0.0 1.7 0.00 0.00 0.00 95 1011.7
20260510065943 60 173 0.9 0.9 0.00 0.00 0.00 95 1011.5
20260510065440 60 0 0.0 0.0 0.00 0.00 0.00 94 1011.5
20260510064936 60 0 0.0 1.7 0.00 0.00 0.00 94 1011.6
20260510064434 60 246 0.0 0.0 0.00 0.00 0.00 93 1011.5
20260510063930 61 246 0.0 0.9 0.00 0.00 0.00 93 1011.7
20260510063426 61 195 0.0 0.0 0.00 0.00 0.00 93 1011.7
20260510062924 62 229 0.0 2.6 0.00 0.00 0.00 93 1011.6
20260510062419 61 234 0.0 0.9 0.00 0.00 0.00 93 1011.6
20260510061915 61 251 0.0 1.7 0.00 0.00 0.00 93 1011.5
20260510061412 61 194 0.0 1.7 0.00 0.00 0.00 92 1011.7
20260510060908 61 180 0.9 1.7 0.00 0.00 0.00 92 1011.6
20260510060405 61 180 0.9 0.9 0.00 0.00 0.00 92 1011.5
20260510055901 62 180 0.9 1.7 0.00 0.00 0.00 93 1011.5
20260510055356 61 169 0.0 1.7 0.00 0.00 0.00 93 1011.5
20260510054854 61 220 0.0 1.7 0.00 0.00 0.00 93 1011.6
20260510054350 61 185 0.0 2.6 0.00 0.00 0.00 93 1011.6
20260510053845 60 173 0.9 1.7 0.00 0.00 0.00 92 1011.7
20260510053341 60 90 0.0 0.0 0.00 0.00 0.00 92 1011.5
20260510052838 60 90 0.0 0.9 0.00 0.00 0.00 92 1011.6
20260510052333 60 83 0.9 1.7 0.00 0.00 0.00 92 1011.8
20260510051830 60 90 0.0 1.7 0.00 0.00 0.00 92 1011.7
20260510051327 60 90 0.0 0.0 0.00 0.00 0.00 91 1011.6
20260510050824 60 81 0.0 0.0 0.00 0.00 0.00 91 1011.9
20260510050320 61 261 0.0 1.7 0.00 0.00 0.00 91 1011.8
20260510045817 60 166 0.0 0.0 0.00 0.00 0.00 91 1011.7
20260510045314 60 82 0.0 1.7 0.00 0.00 0.00 91 1011.9
20260510044811 60 188 1.7 1.7 0.00 0.00 0.00 91 1011.7
20260510044308 60 195 0.0 1.7 0.00 0.00 0.00 91 1011.9
20260510043804 60 172 0.0 0.0 0.00 0.00 0.00 90 1011.7
20260510043300 60 117 0.0 0.0 0.00 0.00 0.00 90 1011.8
20260510042758 60 254 0.0 1.7 0.00 0.00 0.00 90 1011.7
20260510042253 60 126 0.0 0.9 0.00 0.00 0.00 90 1011.7
20260510041750 60 105 0.0 0.0 0.00 0.00 0.00 89 1011.9
20260510041248 60 105 0.0 0.0 0.00 0.00 0.00 89 1011.8
20260510040745 60 105 0.0 1.7 0.00 0.00 0.00 89 1011.7
20260510040242 60 90 0.0 1.7 0.00 0.00 0.00 88 1011.6
20260510035737 61 90 0.0 0.0 0.00 0.00 0.00 88 1011.6
20260510035233 61 98 0.0 0.0 0.00 0.00 0.00 88 1011.5
20260510034729 61 98 0.0 0.0 0.00 0.00 0.00 88 1011.5
20260510034228 61 98 0.0 0.0 0.00 0.00 0.00 87 1011.3
20260510033723 61 98 0.0 0.0 0.00 0.00 0.00 86 1011.4
20260510033221 61 98 0.0 0.0 0.00 0.00 0.00 86 1011.4
20260510032717 61 90 0.0 1.7 0.00 0.00 0.00 86 1011.3
20260510032213 61 97 0.0 1.7 0.00 0.00 0.00 86 1011.4
20260510031708 61 188 0.0 0.0 0.00 0.00 0.00 86 1011.4
20260510031204 61 188 0.0 0.0 0.00 0.00 0.00 86 1011.4
20260510030704 61 188 0.0 0.0 0.00 0.00 0.00 85 1011.2
20260510030202 61 106 0.0 0.9 0.00 0.00 0.00 85 1011.3
20260510025659 62 106 0.0 0.9 0.00 0.00 0.00 85 1011.2
20260510025156 61 99 0.0 0.9 0.00 0.00 0.00 85 1011.2
20260510024653 61 90 0.0 0.0 0.00 0.00 0.00 85 1011.3
20260510024149 61 188 0.0 0.0 0.00 0.00 0.00 85 1011.3
20260510023645 61 188 0.0 0.0 0.00 0.00 0.00 84 1011.1
20260510023142 62 188 0.0 0.0 0.00 0.00 0.00 84 1011.1
20260510022637 62 200 0.0 0.0 0.00 0.00 0.00 83 1011.1
20260510022132 62 200 0.0 0.0 0.00 0.00 0.00 83 1011.1
20260510021628 62 200 0.0 0.0 0.00 0.00 0.00 83 1010.9
20260510021126 62 200 0.0 0.0 0.00 0.00 0.00 82 1010.8
20260510020620 62 200 0.0 0.9 0.00 0.00 0.00 82 1010.9
20260510020115 62 188 0.0 0.0 0.00 0.00 0.00 82 1010.5
20260510015612 62 188 0.0 0.0 0.00 0.00 0.00 81 1010.5
20260510015108 62 255 0.0 0.0 0.00 0.00 0.00 80 1010.6
20260510014604 63 255 0.0 0.0 0.00 0.00 0.00 80 1010.5
20260510014102 63 255 0.0 0.0 0.00 0.00 0.00 79 1010.4
20260510013555 63 255 0.0 0.0 0.00 0.00 0.00 78 1010.4
20260510013052 64 255 0.0 0.0 0.00 0.00 0.00 77 1010.4
20260510012545 64 255 0.0 0.0 0.00 0.00 0.00 77 1010.2
20260510012042 64 255 0.0 0.0 0.00 0.00 0.00 76 1010.2
20260510011542 64 255 0.0 0.0 0.00 0.00 0.00 75 1010.2
20260510011038 64 255 0.0 0.0 0.00 0.00 0.00 75 1010.1
20260510010535 65 255 0.0 0.0 0.00 0.00 0.00 74 1010.1
20260510010032 65 255 0.0 1.7 0.00 0.00 0.00 73 1010.1
20260510005527 65 20 0.0 0.0 0.00 0.00 0.00 73 1010.2
20260510005026 65 180 0.0 0.9 0.00 0.00 0.00 73 1009.9
20260510004523 66 195 0.0 1.7 0.00 0.00 0.00 71 1010.0
20260510004021 66 180 0.0 0.9 0.00 0.00 0.00 70 1009.9
20260510003517 66 180 0.0 0.0 0.00 0.00 0.00 70 1009.8
20260510003012 67 180 0.0 0.0 0.00 0.00 0.00 69 1009.8
20260510002508 67 180 0.0 0.0 0.00 0.00 0.00 68 1009.6
20260510002005 68 180 0.0 0.0 0.00 0.00 0.00 67 1009.7
20260510001503 68 180 0.0 0.0 0.00 0.00 0.00 66 1009.6
20260510001001 69 180 0.0 0.0 0.00 0.00 0.00 65 1009.4
20260510000456 69 180 0.0 0.0 0.00 0.00 0.00 65 1009.5
20260509235952 70 180 0.0 0.9 0.00 0.00 0.00 63 1009.2
20260509235449 71 180 0.0 0.0 0.00 0.00 0.00 62 1009.4
20260509234945 71 180 0.0 0.0 0.00 0.00 0.00 61 1009.2
20260509234442 71 187 0.0 0.0 0.00 0.00 0.00 61 1009.2
20260509233940 72 187 0.0 0.9 0.00 0.00 0.00 59 1009.6
20260509233438 73 203 0.0 2.6 0.00 0.00 0.00 57 1009.1
20260509232933 73 180 0.0 1.7 0.00 0.00 0.00 57 1009.4
20260509232432 74 270 0.9 2.6 0.00 0.00 0.00 55 1009.4
20260509231927 74 286 0.0 1.7 0.00 0.00 0.00 54 1009.2
20260509231424 74 263 0.9 2.6 0.00 0.00 0.00 54 1009.3
20260509230922 74 195 1.7 6.1 0.00 0.00 0.00 54 1009.2
20260509230419 74 162 0.0 2.6 0.00 0.00 0.00 55 1009.2
20260509225915 76 201 0.0 1.7 0.00 0.00 0.00 53 1009.1
20260509225411 76 84 0.0 1.7 0.00 0.00 0.00 54 1009.1
20260509224907 76 212 1.7 3.5 0.00 0.00 0.00 53 1009.1
20260509224403 77 345 0.9 3.5 0.00 0.00 0.00 50 1009.1
20260509223901 79 209 2.6 2.6 0.00 0.00 0.00 48 1009.1
20260509223357 79 249 0.0 2.6 0.00 0.00 0.00 49 1009.3
20260509222854 78 192 0.0 3.5 0.00 0.00 0.00 50 1009.0
20260509222355 78 353 0.0 2.6 0.00 0.00 0.00 52 1009.3
20260509221850 79 225 1.7 3.5 0.00 0.00 0.00 49 1009.1
20260509221348 79 254 0.0 2.6 0.00 0.00 0.00 50 1009.3
20260509220843 76 306 0.9 2.6 0.00 0.00 0.00 52 1009.1
20260509220339 76 238 2.6 4.3 0.00 0.00 0.00 52 1008.9
20260509215835 76 300 1.7 2.6 0.00 0.00 0.00 51 1009.2
20260509215332 76 270 1.7 6.1 0.00 0.00 0.00 51 1009.1
20260509214829 78 229 1.7 3.5 0.00 0.00 0.00 49 1008.9
20260509214326 78 267 0.0 5.2 0.00 0.00 0.00 48 1009.1
20260509213823 79 227 2.6 3.5 0.00 0.00 0.00 50 1008.9
20260509213318 78 265 1.7 6.1 0.00 0.00 0.00 49 1009.1
20260509212816 78 124 1.7 4.3 0.00 0.00 0.00 49 1009.1
20260509212314 78 217 1.7 6.1 0.00 0.00 0.00 49 1009.0
20260509211809 80 270 2.6 5.2 0.00 0.00 0.00 47 1008.7
20260509211305 80 300 2.6 2.6 0.00 0.00 0.00 47 1008.9
20260509210802 79 348 0.0 7.0 0.00 0.00 0.00 49 1009.0
20260509210300 78 215 0.9 7.8 0.00 0.00 0.00 49 1009.1
20260509205759 78 270 0.9 7.0 0.00 0.00 0.00 49 1009.0
20260509205254 78 135 3.5 4.3 0.00 0.00 0.00 48 1009.0
20260509204750 77 204 1.7 10.4 0.00 0.00 0.00 50 1009.0
20260509204247 78 274 4.3 7.8 0.00 0.00 0.00 48 1008.8
20260509203743 78 233 5.2 6.1 0.00 0.00 0.00 47 1008.9
20260509203241 79 209 2.6 5.2 0.00 0.00 0.00 48 1008.8
20260509202736 79 204 3.5 5.2 0.00 0.00 0.00 46 1008.9
20260509202233 80 270 1.7 1.7 0.00 0.00 0.00 46 1008.9
20260509201727 79 112 1.7 4.3 0.00 0.00 0.00 46 1009.1
20260509201224 77 268 3.5 6.1 0.00 0.00 0.00 49 1009.2
20260509200720 77 291 5.2 7.0 0.00 0.00 0.00 47 1009.2
20260509200215 76 248 2.6 4.3 0.00 0.00 0.00 50 1009.2
20260509195711 76 157 2.6 7.0 0.00 0.00 0.00 50 1009.0
20260509195207 75 330 2.6 4.3 0.00 0.00 0.00 50 1009.3
20260509194701 75 278 2.6 7.0 0.00 0.00 0.00 51 1009.3
20260509194158 74 208 1.7 6.1 0.00 0.00 0.00 51 1009.4
20260509193654 74 252 2.6 5.2 0.00 0.00 0.00 51 1009.6
20260509193149 75 255 2.6 3.5 0.00 0.00 0.00 51 1009.5
20260509192646 75 281 2.6 2.6 0.00 0.00 0.00 49 1009.5
20260509192141 76 233 2.6 2.6 0.00 0.00 0.00 50 1009.5
20260509191641 75 103 0.0 8.7 0.00 0.00 0.00 49 1009.6
20260509191138 77 81 0.0 7.8 0.00 0.00 0.00 47 1009.8
20260509190635 80 311 1.7 5.2 0.00 0.00 0.00 46 1009.7
20260509190132 78 326 3.5 4.3 0.00 0.00 0.00 48 1009.6
20260509185630 77 229 0.0 9.6 0.00 0.00 0.00 48 1009.7
20260509185126 77 66 1.7 5.2 0.00 0.00 0.00 49 1009.9
20260509184624 75 210 1.7 4.3 0.00 0.00 0.00 49 1010.0
20260509184120 77 255 2.6 7.0 0.00 0.00 0.00 48 1010.1
20260509183616 77 321 5.2 5.2 0.00 0.00 0.00 48 1010.3
20260509183112 77 164 5.2 7.8 0.00 0.00 0.00 48 1010.2
20260509182608 76 294 0.0 6.1 0.00 0.00 0.00 48 1010.1
20260509182105 76 121 1.7 5.2 0.00 0.00 0.00 51 1010.3
20260509181603 77 193 2.6 2.6 0.00 0.00 0.00 50 1010.2
20260509181100 76 291 4.3 5.2 0.00 0.00 0.00 48 1010.5
20260509180556 75 258 0.0 4.3 0.00 0.00 0.00 52 1010.4
20260509180054 76 264 1.7 5.2 0.00 0.00 0.00 50 1010.4